Flag for Brazil Weather past 2 weeks in Belo Horizonte, Minas Gerais, Brazil

Now
73 °F

Clear.


Feels Like: 77 °F
Forecast: 52 / 82 °F
Wind: 7 mph from East

Location: Belo Horizonte Airport

Current Time: Aug 22, 2014 at 9:01:36 PM

Latest Report: Aug 22, 2014 at 8:00 PM


Visibility: 10 mi

Pressure: 30.12 "Hg

Humidity: 31%

Dew point: 41 °F

Location of Belo HorizonteLocation

Historic Weather in Belo Horizonte — Graph

°F

Belo Horizonte temperature yesterday

Maximum temperature yesterday: 77 °F (at 3:00 PM)
Minimum temperature yesterday: 57 °F (at 6:00 AM)
Average temperature yesterday: 68 °F

Past Weeks' High & Low Weather Summary

 TemperatureHumidityPressure
High84 °F (Aug 13, 3:00 PM)94% (Aug 18, 2:00 AM)30.39 "Hg (Aug 18, 2:00 AM)
Low50 °F (Aug 8, 6:00 AM)15% (Aug 8, 3:00 PM)30.09 "Hg (Aug 13, 3:00 PM)
Average67 °F56%30.23 "Hg
* Reported Aug 7 8:00 PM — Aug 22 8:00 PM, Belo Horizonte, Weather by CustomWeather, © 2014

Note: Actual official high and low records may vary slightly from our data, if they occured in-between our weather recording intervals... More about our weather records

Advertising

Belo Horizonte weather history for previous 24 hours

 ConditionsComfort  
Time TempWeatherWind HumidityBarometerVisibility
8:00 PM
Aug 22
73 °FClear.7 mph31%30.12 "Hg10 mi
7:00 PM75 °FClear.9 mph29%30.12 "Hg10 mi
6:00 PM79 °FClear.1 mph23%30.09 "Hg10 mi
5:00 PM82 °FSunny.6 mph20%30.09 "Hg10 mi
4:00 PM84 °FSunny.2 mph18%30.09 "Hg10 mi
3:00 PM82 °FSunny.6 mph19%30.09 "Hg10 mi
2:00 PM81 °FSunny.5 mph24%30.12 "Hg10 mi
1:00 PM79 °FSunny.5 mph26%30.15 "Hg10 mi
12:00 PM77 °FSunny.5 mph30%30.18 "Hg10 mi
11:00 AM75 °FSunny.7 mph34%30.24 "Hg10 mi
10:00 AM72 °FSunny.3 mph44%30.24 "Hg10 mi
9:00 AM68 °FSunny.6 mph53%30.27 "Hg10 mi
8:00 AM59 °FSunny.2 mph72%30.24 "Hg10 mi
7:00 AM57 °FSunny.3 mph77%30.24 "Hg10 mi
6:00 AM57 °FClear.2 mph77%30.21 "Hg10 mi
5:00 AM57 °FClear.2 mph77%30.21 "Hg10 mi
4:00 AM59 °FClear.2 mph72%30.18 "Hg10 mi
3:00 AM59 °FClear.1 mph72%30.21 "Hg10 mi
2:00 AM59 °FClear.No wind72%30.21 "Hg10 mi
1:00 AM61 °FClear.2 mph68%30.21 "Hg10 mi
12:00 AM64 °FClear.3 mph60%30.21 "Hg10 mi
11:00 PM
Aug 21
66 °FClear.6 mph52%30.24 "Hg10 mi
10:00 PM66 °FClear.7 mph52%30.21 "Hg10 mi
9:00 PM68 °FClear.6 mph49%30.21 "Hg10 mi
Weather by CustomWeather, © 2014

See weather overviewHow to use our weather pages